Station EPTT2 - 8771013 - Eagle Point, TX Image indicating link to RSS feed of recent meteorological observations for station EPTT2


Conditions at EPTT2 as of
(12:18 pm CDT)
1718 GMT on 06/23/2024:
     

Click on the graph icon in the table below to see a time series plot of the last five days of that observation.

5-day plot - Wind Direction Wind Direction (WDIR):ESE ( 110 deg true )
5-day plot - Wind Speed Wind Speed (WSPD): 8.9 kts
5-day plot - Wind Gust Wind Gust (GST): 11.1 kts
5-day plot - Atmospheric Pressure Atmospheric Pressure (PRES):29.98 in
5-day plot - Air Temperature Air Temperature (ATMP): 86.2 °F
5-day plot - Water Temperature Water Temperature (WTMP): 86.2 °F
5-day plot - Wind Speed at 10 Meters Wind Speed at 10 meters (WSPD10M): 9.7 kts
5-day plot - Wind Speed at 20 Meters Wind Speed at 20 meters (WSPD20M): 11.7 kts
5-day plot -  Wind Speed, Wind Gust and Atmospheric Pressure Combined plot of Wind Speed, Gust, and Air Pressure
Previous observations
TIME
(CDT)
5-day plot - Wind Direction
WDIR
 
5-day plot - Wind Speed
WSPD
kts
5-day plot - Wind Gust
GST
kts
5-day plot - Wave Height
WVHT
ft
5-day plot - Dominant Wave Period
DPD
sec
5-day plot - Average Wave Period
APD
sec
5-day plot - Mean Wave Direction
MWD
 
5-day plot - Atmospheric Pressure
PRES
in
5-day plot - Pressure Tendency
PTDY
in
5-day plot - Air Temperature
ATMP
°F
5-day plot - Water Temperature
WTMP
°F
5-day plot - Dew Point
DEWP
°F
5-day plot - Salinity
SAL
psu
5-day plot - Visibility
VIS
nmi
5-day plot - Tide (above MLLW)
TIDE
ft
2024-06-23 12:12 pmESE 8.9 12.0----29.98- 86.2 86.0----
2024-06-23 12:06 pmESE 9.9 12.0----29.97- 86.0 86.0----
2024-06-23 12:00 pmESE 11.1 12.0----29.97- 85.8 85.8----
2024-06-23 11:54 am SE 9.9 12.0----29.97- 86.0 85.8----
2024-06-23 11:48 amESE 11.1 12.0----29.97- 85.8 85.6----
2024-06-23 11:42 amESE 11.1 12.0----29.97- 86.0 85.6----
2024-06-23 11:36 amESE 11.1 13.0----29.97- 85.6 85.5----
2024-06-23 11:30 am E 9.9 12.0----29.97- 85.6 85.3----
2024-06-23 11:24 am E 11.1 12.0----29.97- 85.5 85.1----
2024-06-23 11:18 amESE 9.9 12.0----29.97- 85.5 85.1----
2024-06-23 11:12 am E 11.1 12.0----29.97- 85.5 85.1----
2024-06-23 11:06 amESE 8.9 11.1----29.97- 85.6 85.1----
2024-06-23 11:00 am E 8.9 11.1----29.97- 85.6 85.1----
2024-06-23 10:54 am E 8.9 12.0----29.97- 85.5 84.9----
2024-06-23 10:48 am E 8.0 9.9----29.97- 85.3 84.9----
2024-06-23 10:42 am E 8.9 9.9----29.97- 85.5 84.9----
2024-06-23 10:36 am E 8.0 11.1----29.98- 85.3 84.9----
2024-06-23 10:30 am E 8.9 9.9----29.98- 85.1 84.9----
2024-06-23 10:24 amENE 7.0 8.9----29.98- 85.1 84.9----
2024-06-23 10:18 amENE 8.0 8.9----29.98-- 84.9----
2024-06-23 10:12 amENE 8.0 8.9----29.98-- 84.9----
2024-06-23 10:06 amENE 7.0 8.0----29.98-- 84.9----
2024-06-23 10:00 amENE 8.0 8.9----29.98+0.03------
2024-06-23 09:54 amENE 8.0 9.9----29.98-------
2024-06-23 09:48 amENE 8.0 8.9----29.98- 84.4 84.7----
2024-06-23 09:42 amENE 8.0 9.9----29.97- 84.4 84.7----
2024-06-23 09:36 amENE 8.0 8.9----29.98- 84.4 84.7----
2024-06-23 09:30 amENE 7.0 8.9----29.98- 84.4 84.7----
2024-06-23 09:24 amENE 7.0 8.9----29.97- 84.4 84.7----
2024-06-23 09:18 amENE 7.0 8.0----29.97-- 84.7----
2024-06-23 09:12 amENE 8.0 8.9----29.97-- 84.7----
2024-06-23 09:06 amENE 8.0 8.9----29.97-- 84.7----
2024-06-23 09:00 amENE 8.0 8.9------ 83.8 84.7----
2024-06-23 08:54 amENE 7.0 8.0------ 83.7 84.7----
2024-06-23 08:48 amENE 8.0 8.9----29.97- 83.5 84.7----
2024-06-23 08:42 amENE 8.0 8.9----29.97- 83.5 84.7----
2024-06-23 08:36 amENE 7.0 8.9----29.97- 83.5 84.7----
2024-06-23 08:30 am E 7.0 8.0----29.97-- 84.7----
2024-06-23 08:24 am E 7.0 8.0----29.96-- 84.7----
2024-06-23 08:18 amENE 6.0 8.0----29.96- 83.5 84.6----
2024-06-23 08:12 am E 7.0 8.0----29.96- 83.5 84.6----
2024-06-23 08:06 am E 7.0 8.0----29.96- 83.7 84.6----
2024-06-23 08:00 amENE 7.0 8.9------- 84.6----
2024-06-23 07:54 amENE 7.0 9.9------- 84.6----
2024-06-23 07:48 amENE 8.0 8.9----29.96- 83.5 84.6----
2024-06-23 07:42 amENE 7.0 8.0----29.96- 83.3 84.6----
2024-06-23 07:36 amENE 8.0 8.0----29.96- 83.5 84.6----
2024-06-23 07:30 amENE 7.0 8.0----29.96- 83.5 84.6----
2024-06-23 07:24 amENE 8.0 8.9----29.96- 83.3 84.6----
2024-06-23 07:18 amENE 7.0 8.0----29.96- 83.5 84.6----
2024-06-23 07:12 amENE 8.0 8.9----29.95- 82.9 84.6----
2024-06-23 07:06 am E 6.0 9.9----29.95- 82.8 84.6----
2024-06-23 07:00 am E 8.0 9.9----29.95+0.02- 84.6----
2024-06-23 06:54 am E 8.9 11.1----29.95-- 84.7----
2024-06-23 06:48 am E 8.0 9.9----29.95- 84.4 84.7----
2024-06-23 06:42 am E 7.0 8.9----29.95- 84.2 84.7----
2024-06-23 06:36 amESE 8.0 9.9----29.95- 84.4 84.7----
2024-06-23 06:30 amESE 8.0 9.9----29.94- 84.2 84.7----
2024-06-23 06:24 am E 8.9 9.9----29.94- 84.2 84.7----
2024-06-23 06:18 am E 8.9 9.9----29.94-- 84.7----
2024-06-23 06:12 am E 8.9 9.9----29.94-- 84.7----
2024-06-23 06:06 am E 8.0 8.9----29.94-- 84.7----
2024-06-23 06:00 am E 8.9 9.9------ 84.2 84.9----
2024-06-23 05:54 am E 8.0 9.9------ 84.2 84.9----
2024-06-23 05:48 amESE 7.0 8.0----29.94- 84.2 84.9----
2024-06-23 05:42 am E 8.0 8.0----29.93- 84.0 84.9----
2024-06-23 05:36 am E 7.0 8.0----29.93- 84.2 84.9----
2024-06-23 05:30 am E 7.0 8.0----29.93- 84.0 84.9----
2024-06-23 05:24 amESE 8.0 8.9----29.93- 84.0 84.9----
2024-06-23 05:18 am E 8.0 8.9----29.93- 84.0 85.1----
2024-06-23 05:12 am E 7.0 8.0----29.93- 84.0 85.1----
2024-06-23 05:06 am E 8.0 8.9----29.93- 84.0 85.3----
2024-06-23 05:00 amESE 7.0 8.9----29.93-0.02- 85.3----
2024-06-23 04:54 amESE 7.0 8.0----29.93-- 85.3----
2024-06-23 04:48 amESE 8.0 8.9----29.93- 84.0 85.3----
2024-06-23 04:42 amESE 8.9 9.9----29.93- 83.8 85.3----
2024-06-23 04:36 amESE 8.0 8.9----29.93- 83.8 85.3----
2024-06-23 04:30 amESE 8.0 8.9----29.93- 84.0 85.3----
2024-06-23 04:24 amESE 7.0 8.9----29.93- 84.0 85.3----
2024-06-23 04:18 amESE 7.0 8.9----29.93- 84.0 85.3----
2024-06-23 04:12 amESE 7.0 8.9----29.93- 83.8 85.3----
2024-06-23 04:06 amESE 7.0 8.0----29.93- 84.0 85.5----
2024-06-23 04:00 amESE 8.0 8.9----29.93- 84.0 85.5----
2024-06-23 03:54 amESE 7.0 8.0----29.93- 84.0 85.5----
2024-06-23 03:48 amESE 7.0 9.9----29.93- 84.0 85.5----
2024-06-23 03:42 amESE 8.9 9.9----29.93- 84.0 85.5----
2024-06-23 03:36 am SE 8.0 11.1----29.93- 84.2 85.5----
2024-06-23 03:30 am SE 8.0 8.9----29.93- 84.0 85.5----
2024-06-23 03:24 am SE 7.0 8.9----29.94- 84.2 85.3----
2024-06-23 03:18 amESE 8.9 8.9----29.94- 84.0 85.5----
2024-06-23 03:12 amESE 8.0 8.9----29.94- 84.0 85.5----
2024-06-23 03:06 amESE 8.0 8.9----29.94- 84.0 85.6----
2024-06-23 03:00 amESE 8.0 9.9----29.94-0.04 84.0 85.6----
2024-06-23 02:54 amESE 8.0 9.9----29.94- 84.0 85.6----
2024-06-23 02:48 am SE 7.0 9.9----29.94- 83.8 85.6----
2024-06-23 02:42 amESE 7.0 9.9----29.95- 83.8 85.6----
2024-06-23 02:36 amESE 8.0 11.1----29.94- 83.8 85.6----
2024-06-23 02:30 am SE 8.0 9.9----29.95- 84.0 85.6----
2024-06-23 02:24 amESE 8.9 11.1----29.95- 83.8 85.8----
2024-06-23 02:18 am SE 9.9 11.1----29.95- 83.8 85.8----
2024-06-23 02:12 am SE 8.0 11.1----29.95- 83.8 85.8----
2024-06-23 02:06 amESE 9.9 11.1----29.95- 83.8 85.8----
2024-06-23 02:00 amESE 8.9 11.1----29.96-0.03 83.8 85.8----
2024-06-23 01:54 amESE 9.9 11.1----29.96- 83.8 85.8----
2024-06-23 01:48 amESE 8.0 9.9----29.96- 84.0 86.0----
2024-06-23 01:42 amESE 8.9 11.1----29.96- 84.0 86.0----
2024-06-23 01:36 amESE 8.9 9.9----29.96- 83.8 86.0----
2024-06-23 01:30 am SE 8.0 9.9----29.97- 84.2 86.0----
2024-06-23 01:24 amESE 8.9 11.1----29.97- 84.0 86.0----
2024-06-23 01:18 am SE 8.9 11.1----29.97- 84.0 86.0----
2024-06-23 01:12 am SE 8.0 9.9----29.97- 84.0 86.0----
2024-06-23 01:06 amESE 9.9 11.1----29.98- 84.0 86.0----
2024-06-23 01:00 am--------- 84.0 86.0----
2024-06-23 12:54 am--------- 84.2 86.0----
2024-06-23 12:48 amESE 9.9 11.1----29.98- 84.0 86.0----
2024-06-23 12:42 am SE 8.9 11.1----29.98- 84.2 86.2----
2024-06-23 12:36 am SE 9.9 12.0----29.98- 84.0 86.2----
2024-06-23 12:30 am-------29.98-- 86.2----
2024-06-23 12:24 am-------29.98-- 86.2----
2024-06-23 12:18 amESE 9.9 12.0----29.98- 84.0 86.2----
2024-06-23 12:12 amESE 9.9 12.0----29.98- 84.2 86.2----
2024-06-23 12:06 am SE 8.9 11.1----29.98- 84.2 86.4----
2024-06-23 12:00 amESE 9.9 12.0----29.98+0.02 84.2 86.4----
2024-06-22 11:54 pm SE 9.9 12.0----29.98- 84.2 86.4----
2024-06-22 11:48 pm SE 9.9 12.0----29.99- 84.2 86.4----
2024-06-22 11:42 pm SE 9.9 13.0----29.99- 84.2 86.4----
2024-06-22 11:36 pm SE 12.0 13.0----29.99- 84.2 86.4----
2024-06-22 11:30 pm SE 11.1 13.0----29.99- 84.4 86.4----
2024-06-22 11:24 pm SE 11.1 12.0----29.99- 84.4 86.4----
2024-06-22 11:18 pm SE 12.0 13.0----29.99-- 86.5----
2024-06-22 11:12 pm SE 12.0 13.0----29.99-- 86.5----
2024-06-22 11:06 pm SE 12.0 14.0----29.99-- 86.5----
2024-06-22 11:00 pm SE 12.0 14.0----29.99+0.04 84.4 86.5----
2024-06-22 10:54 pm SE 12.0 14.0----29.98- 84.2 86.5----
2024-06-22 10:48 pm SE 12.0 14.0----29.98- 84.2 86.5----
2024-06-22 10:42 pm SE 12.0 14.0----29.98- 84.2 86.5----
2024-06-22 10:36 pm SE 9.9 12.0----29.98- 84.2 86.5----
2024-06-22 10:30 pm SE 11.1 13.0----29.98- 84.2 86.5----
2024-06-22 10:24 pm SE 11.1 12.0----29.98- 84.2 86.5----
2024-06-22 10:18 pm SE 11.1 13.0----29.98- 84.4 86.5----
2024-06-22 10:12 pmSSE 11.1 12.0----29.98- 84.4 86.5----
2024-06-22 10:06 pm SE 11.1 13.0----29.98- 84.2 86.7----
2024-06-22 10:00 pm-------29.98+0.03- 86.7----
2024-06-22 09:54 pm-------29.98-- 86.7----
2024-06-22 09:48 pm-------29.98-- 86.7----
2024-06-22 09:42 pm-------29.98-- 86.7----
2024-06-22 09:36 pm-------29.98-- 86.7----
2024-06-22 09:30 pm SE 13.0 15.0----29.97- 84.4 86.7----
2024-06-22 09:24 pm SE 12.0 15.0----29.97- 84.4 86.7----
2024-06-22 09:18 pm SE 13.0 15.0----29.97- 84.6 86.7----
2024-06-22 09:12 pm SE 14.0 15.0----29.97- 84.7 86.7----
2024-06-22 09:06 pm SE 12.0 15.0----29.96- 84.7 86.7----
2024-06-22 09:00 pm SE 13.0 15.0----29.96+0.00- 86.9----
2024-06-22 08:54 pm SE 13.0 14.0----29.96-- 86.9----
2024-06-22 08:48 pmESE 13.0 14.0----29.96- 84.7 86.9----
2024-06-22 08:42 pm SE 12.0 15.0----29.96- 84.6 86.9----
2024-06-22 08:36 pm SE 14.0 15.9----29.95- 84.7 86.9----
2024-06-22 08:30 pm SE 13.0 14.0----29.95-------
2024-06-22 08:24 pm SE 12.0 15.0----29.95-------
2024-06-22 08:18 pmESE 12.0 15.0----29.95- 84.7 87.1----
2024-06-22 08:12 pmESE 12.0 14.0----29.95- 84.9 87.1----
2024-06-22 08:06 pmESE 13.0 14.0----29.95- 84.7 87.1----
2024-06-22 08:00 pm SE 13.0 15.0----29.95-0.01 84.7 87.3----
2024-06-22 07:54 pmESE 12.0 15.0----29.95- 85.1 87.3----
2024-06-22 07:48 pmESE 13.0 14.0----29.95- 84.7 87.3----
2024-06-22 07:42 pmESE 13.0 15.0----29.95- 84.9 87.3----
2024-06-22 07:36 pmESE 14.0 15.0----29.95- 84.9 87.3----
2024-06-22 07:30 pmESE 13.0 15.0----29.95- 85.1 87.3----
2024-06-22 07:24 pm SE 13.0 15.0----29.95- 85.3 87.3----
2024-06-22 07:18 pmESE 13.0 15.9----29.95- 85.3 87.3----
2024-06-22 07:12 pmESE 14.0 17.1----29.95- 85.5 87.3----
2024-06-22 07:06 pmESE 13.0 15.9----29.95- 85.5 87.3----
2024-06-22 07:00 pmESE 13.0 15.0----29.95-0.02 85.6 87.3----
2024-06-22 06:54 pmESE 13.0 15.9----29.95- 85.6 87.3----
2024-06-22 06:48 pmESE 14.0 15.9------- 87.3----
2024-06-22 06:42 pmESE 11.1 15.0------- 87.3----
2024-06-22 06:36 pmESE 12.0 15.0------- 87.3----
2024-06-22 06:30 pm SE 13.0 14.0----29.95- 85.3 87.3----
2024-06-22 06:24 pm SE 13.0 15.0----29.96- 85.5 87.3----
2024-06-22 06:18 pm SE 13.0 15.9----29.96- 85.3 87.3----
2024-06-22 06:12 pm SE 12.0 15.9----29.96- 85.6 87.1----
2024-06-22 06:06 pmESE 14.0 15.9----29.96- 85.5 87.1----
2024-06-22 06:00 pm SE 13.0 15.0----29.96-0.04- 87.1----
2024-06-22 05:54 pmESE 14.0 15.9----29.96-- 87.1----
2024-06-22 05:48 pmESE 14.0 15.9----29.96- 85.5 87.1----
2024-06-22 05:42 pm SE 13.0 15.9----29.96- 85.6 87.1----
2024-06-22 05:36 pmESE 13.0 15.0----29.96- 85.5 87.1----
2024-06-22 05:30 pmESE 14.0 15.9----29.96- 85.6 87.1----
2024-06-22 05:24 pmESE 13.0 15.0----29.96- 85.8 87.1----
2024-06-22 05:18 pmESE 12.0 15.0----29.96- 85.6 87.1----
2024-06-22 05:12 pmESE 12.0 14.0----29.96- 85.6 87.1----
2024-06-22 05:06 pmESE 12.0 13.0----29.96- 85.6 86.9----
2024-06-22 05:00 pmESE 12.0 14.0----29.96-0.05 85.8 86.9----
2024-06-22 04:54 pmESE 12.0 13.0----29.97- 85.6 86.9----
2024-06-22 04:48 pmESE 12.0 14.0----29.97- 85.6 86.9----
2024-06-22 04:42 pmESE 12.0 13.0----29.97- 85.8 86.9----
2024-06-22 04:36 pmESE 12.0 13.0----29.97- 86.0 86.9----
2024-06-22 04:30 pmESE 11.1 13.0----29.97-- 86.9----
2024-06-22 04:24 pmESE 12.0 13.0----29.98-- 86.7----
2024-06-22 04:18 pmESE 12.0 13.0----29.98- 85.8 86.9----
2024-06-22 04:12 pmESE 12.0 13.0----29.98- 86.0 86.7----
2024-06-22 04:06 pmESE 11.1 14.0----29.98- 85.8 86.7----
2024-06-22 04:00 pmESE 12.0 13.0----29.98-0.04 85.6 86.7----
2024-06-22 03:54 pmESE 11.1 14.0----29.98- 85.8 86.7----
2024-06-22 03:48 pmESE 12.0 15.0----29.98-- 86.7----
2024-06-22 03:42 pmESE 11.1 14.0----29.98-- 86.7----
2024-06-22 03:36 pmESE 11.1 14.0----29.98-- 86.7----
2024-06-22 03:30 pm--------- 85.8 86.7----
2024-06-22 03:24 pm--------- 85.8 86.5----
2024-06-22 03:18 pmESE 11.1 13.0----29.99-- 86.5----
2024-06-22 03:12 pmESE 11.1 13.0----29.99-- 86.7----
2024-06-22 03:06 pmESE 12.0 14.0----29.99-- 86.5----
2024-06-22 03:00 pm E 12.0 14.0----30.00-0.04 85.8 86.5----
2024-06-22 02:54 pm E 12.0 13.0----30.00- 86.0 86.5----
2024-06-22 02:48 pm E 11.1 13.0----30.00- 86.0 86.5----
2024-06-22 02:42 pm E 11.1 14.0----30.00- 85.8 86.5----
2024-06-22 02:36 pm E 11.1 12.0----30.00- 85.8 86.5----
2024-06-22 02:30 pm E 12.0 14.0----30.00- 85.8 86.4----
2024-06-22 02:24 pm E 12.0 13.0----30.00- 85.8 86.5----
2024-06-22 02:18 pm E 12.0 14.0----30.01- 85.8 86.4----
2024-06-22 02:12 pmESE 12.0 14.0----30.01- 86.0 86.4----
2024-06-22 02:06 pm E 12.0 14.0----30.01- 86.0 86.2----
2024-06-22 02:00 pm E 11.1 13.0----30.01-0.02 86.0 86.0----
2024-06-22 01:54 pm E 12.0 13.0----30.02- 86.0 86.0----
2024-06-22 01:48 pm E 12.0 13.0----30.02- 86.0 85.8----
2024-06-22 01:42 pm E 11.1 14.0----30.02- 86.0 85.8----
2024-06-22 01:36 pm E 12.0 14.0----30.02- 86.2 85.8----
2024-06-22 01:30 pm E 12.0 13.0----30.02- 86.0 85.8----
2024-06-22 01:24 pm E 11.1 12.0----30.02- 86.2 85.8----
2024-06-22 01:18 pm E 11.1 13.0----30.02- 86.0-----
2024-06-22 01:12 pm E 11.1 13.0----30.02- 86.0-----
2024-06-22 01:06 pm E 11.1 14.0----30.02- 86.0-----
2024-06-22 01:00 pm E 13.0 14.0----30.02-0.02 85.8 85.6----
2024-06-22 12:54 pm E 11.1 13.0----30.02- 86.0 85.6----
2024-06-22 12:48 pm E 9.9 13.0----30.02- 86.0 85.6----
2024-06-22 12:42 pm E 11.1 13.0----30.02- 86.2 85.5----
2024-06-22 12:36 pm E 11.1 13.0----30.03- 86.2 85.3----
2024-06-22 12:30 pm E 9.9 12.0----30.03- 86.2 85.3----
2024-06-22 12:24 pm E 9.9 12.0----30.03- 86.2 85.1----
2024-06-22 12:18 pm E 11.1 12.0----30.03- 86.4 85.1----
2024-06-22 12:12 pm E 11.1 12.0----30.03- 86.5 84.9----
2024-06-22 12:06 pmESE 9.9 13.0----30.03- 86.7 84.7----
2024-06-22 12:00 pm E 11.1 12.0----30.03-0.01 86.7 84.6----
2024-06-22 11:54 am E 8.9 11.1----30.03- 86.4 84.4----